Flag for U.S.A. Weather past 2 weeks in Jackson, Wyoming, U.S.A.

Now
39 °F

Partly cloudy.


Feels Like: 29 °F
Forecast: 33 / 48 °F
Wind: 20 mph from Southwest

Location: Jackson Hole


UV Index: 0 (Low)

Visibility: N/A


Pressure: 29.98 "Hg

Humidity: 70%

Dew point: 30 °F

Location of JacksonLocation

Historic Weather in Jackson

°F

Jackson temperature yesterday

Maximum temperature yesterday: 37 °F (at 12:51 PM)
Minimum temperature yesterday: 30 °F (at 6:35 AM)
Average temperature yesterday: 34 °F

Past Weeks' High & Low Weather Summary

 TemperatureHumidityPressure
High63 °F (Apr 21, 4:52 PM)100% (Apr 12, 7:51 AM)30.33 "Hg (Apr 12, 7:51 AM)
Low7 °F (Apr 14, 6:35 AM)14% (Apr 21, 4:52 PM)29.53 "Hg (Apr 22, 5:52 PM)
Average36 °F66%30.00 "Hg
* Reported Apr 9 10:15 PM — Apr 24 10:35 PM, Jackson, Weather by CustomWeather, © 2014

Note: Actual official high and low records may vary slightly from our data, if they occured in-between our weather recording intervals... More about our weather records

Advertising

Historic Weather Conditions — Data for Previous 24 hours

 ConditionsComfort  
Time TempWeatherWind HumidityBarometerVisibility
10:35 PM
Apr 24
37 °FPassing clouds.12 mph75%29.96 "HgN/A
10:15 PM34 °FChilly.7 mph87%29.96 "HgN/A
9:55 PM36 °FPassing clouds.8 mph81%29.96 "HgN/A
9:35 PM36 °FPassing clouds.8 mph81%29.96 "HgN/A
9:15 PM37 °FPartly sunny.9 mph81%29.96 "HgN/A
8:55 PM36 °FPassing clouds.8 mph81%29.96 "HgN/A
7:51 PM37 °FPartly sunny.6 mph87%29.95 "Hg10 mi
5:55 PM39 °FScattered showers. Mostly cloudy.15 mph81%29.97 "Hg10 mi
5:00 PM37 °FScattered showers. Mostly cloudy.17 mph93%29.98 "Hg7 mi
3:53 PM41 °FMostly cloudy.N/A70%29.97 "Hg10 mi
2:58 PM41 °FMostly cloudy.N/A66%29.98 "Hg10 mi
1:55 PM43 °FOvercast.N/A61%29.98 "Hg10 mi
12:51 PM39 °FLight snow. Mostly cloudy.21 mph65%29.99 "Hg6 mi
11:51 AM43 °FPartly sunny.24 mph53%29.98 "Hg10 mi
11:30 AM39 °FOvercast.15 mph52%30.00 "Hg10 mi
9:52 AM39 °FOvercast.17 mph52%30.00 "Hg10 mi
8:53 AM34 °FOvercast.14 mph70%30.00 "Hg10 mi
7:54 AM34 °FOvercast.9 mph70%30.01 "Hg10 mi
6:59 AM34 °FOvercast.8 mph70%30.00 "Hg10 mi
6:35 AM32 °FMostly cloudy.7 mph75%30.00 "HgN/A
6:15 AM32 °FOvercast.7 mph75%30.00 "HgN/A
5:55 AM32 °FMostly cloudy.6 mph75%30.00 "HgN/A
5:35 AM30 °FOvercast.7 mph80%30.00 "HgN/A
5:15 AM30 °FMostly cloudy.6 mph80%30.00 "HgN/A
4:55 AM30 °FPassing clouds.5 mph80%30.00 "HgN/A
4:35 AM30 °FPassing clouds.9 mph80%30.00 "HgN/A
4:15 AM30 °FPassing clouds.8 mph80%30.00 "HgN/A
3:55 AM30 °FPassing clouds.6 mph80%30.00 "HgN/A
3:35 AM30 °FPassing clouds.7 mph80%30.01 "HgN/A
3:15 AM30 °FPassing clouds.7 mph75%30.00 "HgN/A
2:55 AM30 °FPassing clouds.7 mph75%30.01 "HgN/A
2:35 AM30 °FOvercast.5 mph75%30.01 "HgN/A
2:15 AM30 °FPassing clouds.3 mph75%30.02 "HgN/A
1:55 AM30 °FPassing clouds.No wind80%30.01 "HgN/A
1:35 AM34 °FOvercast.9 mph60%30.02 "HgN/A
1:15 AM34 °FOvercast.8 mph60%30.02 "HgN/A
12:55 AM34 °FOvercast.9 mph60%30.02 "HgN/A
12:35 AM36 °FOvercast.14 mph56%30.01 "HgN/A
12:15 AM36 °FOvercast.12 mph56%30.01 "HgN/A
11:55 PM
Apr 23
36 °FPassing clouds.10 mph56%30.02 "HgN/A
11:35 PM34 °FOvercast.8 mph65%30.01 "HgN/A
11:15 PM36 °FOvercast.10 mph56%30.01 "Hg10 mi
Weather by CustomWeather, © 2014

See weather overview